Change the Weather History Date:

Friday, December 2, 2011

  Actual Average Record
Temperature  
Mean Temperature 33 °F -  
Max Temperature 42 °F 38 °F 59 °F (1998)
Min Temperature 24 °F 22 °F 10 °F (2003)
Degree Days  
Heating Degree Days 32    
Moisture  
Dew Point 25 °F    
Average Humidity 70    
Maximum Humidity 92    
Minimum Humidity 49    
Precipitation  
Precipitation 0.00 in - - ()
Sea Level Pressure  
Sea Level Pressure 30.35 in    
Wind  
Wind Speed 2 mph (SW)    
Max Wind Speed 10 mph    
Max Gust Speed -    
Visibility 10 miles    
Events      
Averages and records for this station are not official NWS values.
T = Trace of Precipitation, MM = Missing Value Source: NWS Daily Summary

Daily Weather History Graph

Daily Weather History Graph

Search for Another Location

Airport or City:

Trip Planner

Search our weather history database for the weather conditions in past years. The results will help you decide how hot, cold, wet, or windy it might be!

Date:

Astronomy

Dec. 02, 2011 Rise Set
Actual Time 6:59 AM EST 4:14 PM EST
Civil Twilight 6:28 AM EST 4:46 PM EST
Nautical Twilight 5:52 AM EST 5:21 PM EST
Astronomical Twilight 5:18 AM EST 5:55 PM EST
Moon 12:01 PM EST (12/2) No Moon Set
Length of Visible Light 10h 18m
Length of Day
9h 15m
First Quarter, 53% of the Moon is Illuminated
Dec 2
First Quarter
Dec 10
Full
Dec 17
Last Quarter
Dec 24
New
Jan 1
First Quarter

Hourly Weather History & Observations

Time (EST) Temp. Windchill Dew Point Humidity Pressure Visibility Wind Dir Wind Speed Gust Speed Precip Events Conditions
12:52 AM 28.0 °F - 21.9 °F 78% 30.30 in 10.0 mi Calm Calm - N/A   Clear
1:52 AM 28.0 °F 24.2 °F 23.0 °F 81% 30.31 in 10.0 mi SSE 3.5 mph - N/A   Clear
2:52 AM 27.0 °F - 23.0 °F 85% 30.32 in 10.0 mi Calm Calm - N/A   Clear
4:52 AM 26.1 °F - 21.9 °F 84% 30.32 in 10.0 mi Calm Calm - N/A   Clear
5:52 AM 24.1 °F - 21.9 °F 91% 30.33 in 10.0 mi Calm Calm - N/A   Clear
7:52 AM 25.0 °F - 23.0 °F 92% 30.33 in 10.0 mi Calm Calm - N/A   Clear
8:52 AM 30.9 °F - 26.1 °F 82% 30.33 in 10.0 mi Calm Calm - N/A   Clear
9:52 AM 37.0 °F - 26.1 °F 65% 30.32 in 10.0 mi Calm Calm - N/A   Clear
10:52 AM 39.0 °F 34.0 °F 24.1 °F 55% 30.31 in 10.0 mi SSW 6.9 mph - N/A   Clear
11:52 AM 42.1 °F 36.6 °F 24.1 °F 49% 30.29 in 10.0 mi SW 9.2 mph - N/A   Clear
12:52 PM 42.1 °F 36.1 °F 24.1 °F 49% 30.27 in 10.0 mi SW 10.4 mph - N/A   Scattered Clouds
2:52 PM 42.1 °F 38.4 °F 27.0 °F 55% 30.27 in 10.0 mi South 5.8 mph - N/A   Scattered Clouds
3:52 PM 41.0 °F 39.0 °F 27.0 °F 57% 30.29 in 10.0 mi WSW 3.5 mph - N/A   Overcast
4:52 PM 39.0 °F - 28.0 °F 65% 30.32 in 10.0 mi Calm Calm - N/A   Mostly Cloudy
5:52 PM 37.9 °F 35.5 °F 26.1 °F 62% 30.35 in 10.0 mi WNW 3.5 mph - N/A   Mostly Cloudy
6:52 PM 37.9 °F 33.5 °F 23.0 °F 55% 30.38 in 10.0 mi Variable 5.8 mph - N/A   Partly Cloudy
7:52 PM 37.0 °F 33.3 °F 25.0 °F 62% 30.40 in 10.0 mi WNW 4.6 mph - N/A   Clear
8:52 PM 37.0 °F - 27.0 °F 67% 30.43 in 10.0 mi Calm Calm - N/A   Overcast
9:52 PM 33.1 °F - 27.0 °F 78% 30.45 in 10.0 mi Calm Calm - N/A   Clear
11:33 PM 33.8 °F - 26.6 °F 75% 30.44 in 10.0 mi Calm Calm - N/A   Mostly Cloudy
11:52 PM 32.0 °F - 27.0 °F 82% 30.50 in 10.0 mi Calm Calm - N/A   Overcast